| time (UTC) | temp F | wind direction | speed MPH | gust MPH | rain 1hr in | rain 24hr in | rain mn in | humidity % | barometer mb |
| 20260505003946 | 69 | 235 | 6.0 | 9.0 | 0.00 | 0.00 | 0.00 | 32 | 1015.3 |
| 20260505002745 | 70 | 219 | 5.0 | 9.0 | 0.00 | 0.00 | 0.00 | 31 | 1015.3 |
| 20260505001940 | 71 | 279 | 5.0 | 11.0 | 0.00 | 0.00 | 0.00 | 31 | 1015.3 |
| 20260505001538 | 72 | 288 | 4.0 | 8.0 | 0.00 | 0.00 | 0.00 | 30 | 1015.3 |
| 20260505000747 | 72 | 272 | 3.0 | 11.0 | 0.00 | 0.00 | 0.00 | 31 | 1015.1 |
| 20260505000745 | 72 | 272 | 3.0 | 11.0 | 0.00 | 0.00 | 0.00 | 31 | 1015.1 |
| 20260505000336 | 73 | 244 | 6.0 | 9.0 | 0.00 | 0.00 | 0.00 | 30 | 1015.1 |
| 20260504235134 | 74 | 273 | 2.0 | 17.0 | 0.00 | 0.00 | 0.00 | 30 | 1015.1 |
| 20260504234730 | 75 | 219 | 6.0 | 13.0 | 0.00 | 0.00 | 0.00 | 30 | 1015.2 |
| 20260504234334 | 74 | 274 | 12.0 | 18.0 | 0.00 | 0.00 | 0.00 | 30 | 1015.1 |
| 20260504233526 | 75 | 283 | 15.0 | 15.0 | 0.00 | 0.00 | 0.00 | 30 | 1015.1 |
| 20260504233136 | 74 | 292 | 8.0 | 12.0 | 0.00 | 0.00 | 0.00 | 30 | 1015.2 |
| 20260504232723 | 74 | 230 | 11.0 | 21.0 | 0.00 | 0.00 | 0.00 | 31 | 1015.1 |
| 20260504231921 | 73 | 196 | 7.0 | 12.0 | 0.00 | 0.00 | 0.00 | 30 | 1015.1 |
| 20260504231520 | 72 | 205 | 8.0 | 13.0 | 0.00 | 0.00 | 0.00 | 30 | 1015.1 |
| 20260504231118 | 73 | 173 | 5.0 | 11.0 | 0.00 | 0.00 | 0.00 | 30 | 1015.3 |
| 20260504230716 | 73 | 135 | 3.0 | 9.0 | 0.00 | 0.00 | 0.00 | 29 | 1015.3 |
| 20260504230315 | 73 | 272 | 4.0 | 9.0 | 0.00 | 0.00 | 0.00 | 29 | 1015.3 |
| 20260504225953 | 73 | 295 | 5.0 | 12.0 | 0.00 | 0.00 | 0.00 | 29 | 1015.4 |
| 20260504225914 | 73 | 295 | 5.0 | 12.0 | 0.00 | 0.00 | 0.00 | 29 | 1015.4 |
| 20260504225112 | 74 | 220 | 7.0 | 10.0 | 0.00 | 0.00 | 0.00 | 29 | 1015.4 |
| 20260504224716 | 75 | 274 | 4.0 | 8.0 | 0.00 | 0.00 | 0.00 | 29 | 1015.5 |
| 20260504224313 | 75 | 221 | 6.0 | 11.0 | 0.00 | 0.00 | 0.00 | 29 | 1015.6 |
| 20260504223506 | 74 | 220 | 9.0 | 16.0 | 0.00 | 0.00 | 0.00 | 29 | 1015.6 |
| 20260504223105 | 74 | 255 | 8.0 | 11.0 | 0.00 | 0.00 | 0.00 | 29 | 1015.6 |
| 20260504222704 | 74 | 279 | 8.0 | 23.0 | 0.00 | 0.00 | 0.00 | 30 | 1015.5 |
| 20260504221907 | 73 | 270 | 3.0 | 13.0 | 0.00 | 0.00 | 0.00 | 30 | 1015.7 |
| 20260504221059 | 75 | 200 | 14.0 | 14.0 | 0.00 | 0.00 | 0.00 | 30 | 1015.6 |
| 20260504220704 | 76 | 202 | 7.0 | 10.0 | 0.00 | 0.00 | 0.00 | 29 | 1015.7 |
| 20260504220301 | 76 | 173 | 7.0 | 9.0 | 0.00 | 0.00 | 0.00 | 30 | 1015.7 |
| 20260504215901 | 76 | 190 | 3.0 | 13.0 | 0.00 | 0.00 | 0.00 | 30 | 1015.8 |
| 20260504215458 | 74 | 202 | 9.0 | 15.0 | 0.00 | 0.00 | 0.00 | 30 | 1015.9 |
| 20260504214251 | 72 | 180 | 3.0 | 12.0 | 0.00 | 0.00 | 0.00 | 30 | 1016.0 |
| 20260504213454 | 74 | 121 | 6.0 | 9.0 | 0.00 | 0.00 | 0.00 | 30 | 1016.1 |
| 20260504213051 | 74 | 267 | 6.0 | 13.0 | 0.00 | 0.00 | 0.00 | 30 | 1016.1 |
| 20260504212250 | 73 | 90 | 5.0 | 11.0 | 0.00 | 0.00 | 0.00 | 30 | 1016.1 |
| 20260504211842 | 73 | 103 | 4.0 | 10.0 | 0.00 | 0.00 | 0.00 | 30 | 1016.1 |
| 20260504211441 | 73 | 216 | 8.0 | 11.0 | 0.00 | 0.00 | 0.00 | 31 | 1016.0 |
| 20260504211040 | 73 | 187 | 3.0 | 8.0 | 0.00 | 0.00 | 0.00 | 31 | 1016.2 |
| 20260504210638 | 73 | 202 | 5.0 | 11.0 | 0.00 | 0.00 | 0.00 | 30 | 1016.2 |
| 20260504210237 | 74 | 225 | 7.0 | 9.0 | 0.00 | 0.00 | 0.00 | 31 | 1016.0 |
| 20260504205835 | 74 | 197 | 8.0 | 9.0 | 0.00 | 0.00 | 0.00 | 32 | 1016.0 |
| 20260504205446 | 72 | 199 | 5.0 | 10.0 | 0.00 | 0.00 | 0.00 | 31 | 1016.0 |
| 20260504205037 | 72 | 195 | 8.0 | 8.0 | 0.00 | 0.00 | 0.00 | 32 | 1016.0 |
| 20260504204634 | 71 | 221 | 2.0 | 10.0 | 0.00 | 0.00 | 0.00 | 31 | 1015.9 |
| 20260504204230 | 72 | 152 | 5.0 | 9.0 | 0.00 | 0.00 | 0.00 | 31 | 1016.1 |
| 20260504203829 | 72 | 163 | 5.0 | 6.0 | 0.00 | 0.00 | 0.00 | 31 | 1016.0 |
| 20260504203428 | 72 | 186 | 8.0 | 9.0 | 0.00 | 0.00 | 0.00 | 30 | 1016.1 |
| 20260504202626 | 73 | 264 | 1.0 | 4.0 | 0.00 | 0.00 | 0.00 | 31 | 1016.0 |
| 20260504201822 | 73 | 294 | 4.0 | 8.0 | 0.00 | 0.00 | 0.00 | 31 | 1016.0 |
| 20260504201421 | 73 | 182 | 2.0 | 8.0 | 0.00 | 0.00 | 0.00 | 30 | 1016.1 |
| 20260504200619 | 74 | 270 | 4.0 | 8.0 | 0.00 | 0.00 | 0.00 | 31 | 1016.1 |
| 20260504200219 | 73 | 186 | 5.0 | 5.0 | 0.00 | 0.00 | 0.00 | 30 | 1016.1 |
| 20260504195817 | 73 | 225 | 1.0 | 10.0 | 0.00 | 0.00 | 0.00 | 30 | 1016.1 |
| 20260504195013 | 74 | 265 | 4.0 | 6.0 | 0.00 | 0.00 | 0.00 | 31 | 1016.2 |
| 20260504194613 | 74 | 119 | 5.0 | 6.0 | 0.00 | 0.00 | 0.00 | 31 | 1016.1 |
| 20260504194212 | 76 | 232 | 3.0 | 4.0 | 0.00 | 0.00 | 0.00 | 31 | 1016.1 |
| 20260504193810 | 75 | 99 | 1.0 | 7.0 | 0.00 | 0.00 | 0.00 | 31 | 1016.2 |
| 20260504193409 | 74 | 220 | 7.0 | 7.0 | 0.00 | 0.00 | 0.00 | 31 | 1016.2 |
| 20260504192606 | 73 | 180 | 2.0 | 9.0 | 0.00 | 0.00 | 0.00 | 32 | 1016.3 |
| 20260504191001 | 72 | 128 | 8.0 | 8.0 | 0.00 | 0.00 | 0.00 | 32 | 1016.4 |
| 20260504190600 | 73 | 296 | 2.0 | 4.0 | 0.00 | 0.00 | 0.00 | 32 | 1016.4 |
| 20260504185757 | 74 | 331 | 2.0 | 4.0 | 0.00 | 0.00 | 0.00 | 32 | 1016.3 |
| 20260504185356 | 73 | 135 | 1.0 | 7.0 | 0.00 | 0.00 | 0.00 | 33 | 1016.5 |
| 20260504184955 | 73 | 166 | 5.0 | 5.0 | 0.00 | 0.00 | 0.00 | 33 | 1016.6 |
| 20260504184555 | 73 | 173 | 1.0 | 7.0 | 0.00 | 0.00 | 0.00 | 34 | 1016.6 |
| 20260504184152 | 73 | 135 | 7.0 | 7.0 | 0.00 | 0.00 | 0.00 | 34 | 1016.5 |
| 20260504183751 | 0 | 166 | 2.0 | 6.0 | 0.00 | 0.00 | 0.00 | ||
| 20260504183352 | 72 | 182 | 2.0 | 6.0 | 0.00 | 0.00 | 0.00 | 34 | 1016.6 |
| 20260504182948 | 72 | 192 | 2.0 | 6.0 | 0.00 | 0.00 | 0.00 | 34 | 1016.6 |
| 20260504182547 | 72 | 184 | 6.0 | 7.0 | 0.00 | 0.00 | 0.00 | 34 | 1016.6 |
| 20260504182151 | 72 | 175 | 3.0 | 7.0 | 0.00 | 0.00 | 0.00 | 34 | 1016.7 |
| 20260504181748 | 70 | 197 | 2.0 | 7.0 | 0.00 | 0.00 | 0.00 | 34 | 1016.6 |
| 20260504181347 | 70 | 186 | 4.0 | 9.0 | 0.00 | 0.00 | 0.00 | 34 | 1016.7 |
| 20260504180942 | 71 | 175 | 3.0 | 6.0 | 0.00 | 0.00 | 0.00 | 34 | 1016.7 |
| 20260504180140 | 72 | 191 | 3.0 | 8.0 | 0.00 | 0.00 | 0.00 | 35 | 1016.6 |
| 20260504175738 | 72 | 128 | 8.0 | 8.0 | 0.00 | 0.00 | 0.00 | 35 | 1016.5 |
| 20260504175336 | 72 | 185 | 4.0 | 5.0 | 0.00 | 0.00 | 0.00 | 35 | 1016.5 |
| 20260504174938 | 71 | 92 | 1.0 | 4.0 | 0.00 | 0.00 | 0.00 | 35 | 1016.5 |
| 20260504174534 | 71 | 175 | 2.0 | 4.0 | 0.00 | 0.00 | 0.00 | 35 | 1016.6 |
| 20260504174133 | 71 | 92 | 0.0 | 5.0 | 0.00 | 0.00 | 0.00 | 35 | 1016.5 |
| 20260504173731 | 71 | 177 | 1.0 | 3.0 | 0.00 | 0.00 | 0.00 | 34 | 1016.5 |
| 20260504173330 | 69 | 180 | 1.0 | 2.0 | 0.00 | 0.00 | 0.00 | 34 | 1016.5 |
| 20260504172928 | 69 | 135 | 2.0 | 3.0 | 0.00 | 0.00 | 0.00 | 34 | 1016.5 |
| 20260504172529 | 69 | 177 | 1.0 | 3.0 | 0.00 | 0.00 | 0.00 | 34 | 1016.5 |
| 20260504172126 | 70 | 180 | 1.0 | 2.0 | 0.00 | 0.00 | 0.00 | 33 | 1016.4 |
| 20260504171725 | 70 | 168 | 0.0 | 4.0 | 0.00 | 0.00 | 0.00 | 33 | 1016.5 |
| 20260504171324 | 69 | 347 | 1.0 | 3.0 | 0.00 | 0.00 | 0.00 | 33 | 1016.4 |
| 20260504170923 | 68 | 184 | 1.0 | 2.0 | 0.00 | 0.00 | 0.00 | 33 | 1016.4 |
| 20260504170521 | 68 | 186 | 2.0 | 2.0 | 0.00 | 0.00 | 0.00 | 32 | 1016.4 |
| 20260504150845 | 61 | 279 | 4.0 | 4.0 | 0.00 | 0.00 | 0.00 | 51 | 1016.2 |
| 20260504150443 | 60 | 292 | 4.0 | 6.0 | 0.00 | 0.00 | 0.00 | 1 | 1016.2 |
| 20260504141228 | 56 | 263 | 1.0 | 2.0 | 0.00 | 0.00 | 0.00 | 57 | 1015.9 |
| 20260504140828 | 55 | 225 | 0.0 | 1.0 | 0.00 | 0.00 | 0.00 | 57 | 1016.0 |
| 20260504130805 | 54 | 283 | 0.0 | 0.0 | 0.00 | 0.00 | 0.00 | 55 | 1015.7 |
| 20260504130405 | 54 | 270 | 0.0 | 0.0 | 0.00 | 0.00 | 0.00 | 55 | 1015.7 |
| 20260504110327 | 55 | 274 | 0.0 | 0.0 | 0.00 | 0.00 | 0.00 | 54 | 1015.5 |
| 20260504081835 | 56 | 324 | 0.0 | 0.0 | 0.00 | 0.00 | 0.00 | 53 | 1016.4 |
| 20260504081431 | 56 | 270 | 0.0 | 0.0 | 0.00 | 0.00 | 0.00 | 53 | 1016.6 |
| 20260504081030 | 56 | 283 | 0.0 | 0.0 | 0.00 | 0.00 | 0.00 | 53 | 1016.6 |
| 20260504080629 | 56 | 279 | 0.0 | 1.0 | 0.00 | 0.00 | 0.00 | 53 | 1016.5 |
| 20260504080228 | 56 | 85 | 0.0 | 0.0 | 0.00 | 0.00 | 0.00 | 53 | 1016.3 |
| 20260504070210 | 56 | 288 | 1.0 | 3.0 | 0.00 | 0.00 | 0.00 | 53 | 1016.3 |
| 20260504070208 | 56 | 288 | 1.0 | 3.0 | 0.00 | 0.00 | 0.00 | 53 | 1016.3 |
| 20260504060149 | 56 | 274 | 0.0 | 1.0 | 0.00 | 0.00 | 0.00 | 52 | 1016.1 |
| 20260504050531 | 58 | 227 | 1.0 | 2.0 | 0.00 | 0.00 | 0.00 | 50 | 1016.1 |
| 20260504050129 | 58 | 247 | 1.0 | 1.0 | 0.00 | 0.00 | 0.00 | 50 | 1016.1 |
| 20260504045321 | 58 | 262 | 2.0 | 3.0 | 0.00 | 0.00 | 0.00 | 50 | 1016.0 |
| 20260504044119 | 58 | 250 | 1.0 | 1.0 | 0.00 | 0.00 | 0.00 | 49 | 1016.0 |
| 20260504041309 | 59 | 279 | 2.0 | 3.0 | 0.00 | 0.00 | 0.00 | 48 | 1015.8 |
| 20260504040506 | 59 | 240 | 0.0 | 2.0 | 0.00 | 0.00 | 0.00 | 47 | 1015.6 |
| 20260504040107 | 59 | 279 | 1.0 | 3.0 | 0.00 | 0.00 | 0.00 | 47 | 1015.5 |
| 20260504035304 | 60 | 299 | 2.0 | 3.0 | 0.00 | 0.00 | 0.00 | 47 | 1015.5 |
| 20260504034901 | 60 | 283 | 1.0 | 0.0 | 0.00 | 0.00 | 0.00 | 47 | 1015.5 |
| 20260504034058 | 60 | 283 | 3.0 | 3.0 | 0.00 | 0.00 | 0.00 | 46 | 1015.1 |
| 20260504033256 | 60 | 272 | 1.0 | 3.0 | 0.00 | 0.00 | 0.00 | 46 | 1015.3 |
| 20260504032856 | 60 | 288 | 3.0 | 4.0 | 0.00 | 0.00 | 0.00 | 45 | 1015.2 |
| 20260504031654 | 61 | 294 | 2.0 | 3.0 | 0.00 | 0.00 | 0.00 | 45 | 1014.9 |
| 20260504031249 | 61 | 290 | 2.0 | 4.0 | 0.00 | 0.00 | 0.00 | 45 | 1014.8 |
| 20260504030853 | 61 | 274 | 4.0 | 4.0 | 0.00 | 0.00 | 0.00 | 44 | 1014.9 |
| 20260504030447 | 61 | 232 | 2.0 | 5.0 | 0.00 | 0.00 | 0.00 | 44 | 1014.9 |
| 20260504024842 | 62 | 135 | 1.0 | 4.0 | 0.00 | 0.00 | 0.00 | 43 | 1014.7 |
| 20260504024042 | 62 | 90 | 2.0 | 3.0 | 0.00 | 0.00 | 0.00 | 43 | 1014.7 |
| 20260504023237 | 63 | 186 | 2.0 | 3.0 | 0.00 | 0.00 | 0.00 | 42 | 1014.5 |
| 20260504022436 | 63 | 173 | 2.0 | 2.0 | 0.00 | 0.00 | 0.00 | 41 | 1014.4 |
| 20260504021632 | 63 | 173 | 2.0 | 3.0 | 0.00 | 0.00 | 0.00 | 41 | 1014.4 |
| 20260504020434 | 63 | 144 | 1.0 | 4.0 | 0.00 | 0.00 | 0.00 | 40 | 1014.3 |
| 20260504020028 | 63 | 135 | 2.0 | 4.0 | 0.00 | 0.00 | 0.00 | 40 | 1014.2 |
| 20260504015631 | 63 | 177 | 4.0 | 4.0 | 0.00 | 0.00 | 0.00 | 39 | 1014.3 |
| 20260504015629 | 63 | 177 | 4.0 | 4.0 | 0.00 | 0.00 | 0.00 | 39 | 1014.3 |
| 20260504014824 | 63 | 135 | 5.0 | 8.0 | 0.00 | 0.00 | 0.00 | 39 | 1014.0 |
| 20260504014020 | 64 | 135 | 5.0 | 8.0 | 0.00 | 0.00 | 0.00 | 38 | 1014.1 |
| 20260504013622 | 65 | 150 | 4.0 | 7.0 | 0.00 | 0.00 | 0.00 | 37 | 1013.9 |
| 20260504013217 | 66 | 177 | 1.0 | 4.0 | 0.00 | 0.00 | 0.00 | 37 | 1014.0 |
| 20260504012820 | 66 | 187 | 4.0 | 4.0 | 0.00 | 0.00 | 0.00 | 37 | 1014.0 |
| 20260504012414 | 66 | 177 | 4.0 | 4.0 | 0.00 | 0.00 | 0.00 | 37 | 1014.2 |
| 20260504011614 | 65 | 130 | 5.0 | 6.0 | 0.00 | 0.00 | 0.00 | 36 | 1014.0 |
| 20260504011211 | 65 | 139 | 4.0 | 8.0 | 0.00 | 0.00 | 0.00 | 36 | 1013.9 |
| 20260504005605 | 67 | 139 | 5.0 | 7.0 | 0.00 | 0.00 | 0.00 | 35 | 1014.0 |
| 20260504005204 | 67 | 137 | 4.0 | 4.0 | 0.00 | 0.00 | 0.00 | 35 | 1013.9 |
| 20260504004803 | 67 | 162 | 2.0 | 6.0 | 0.00 | 0.00 | 0.00 | 34 | 1013.9 |
| 20260504004402 | 67 | 165 | 3.0 | 8.0 | 0.00 | 0.00 | 0.00 | 34 | 1013.8 |